TimeCDT,TemperatureF,Dew PointF,Humidity,Sea Level PressureIn,VisibilityMPH,Wind Direction,Wind SpeedMPH,Gust SpeedMPH,PrecipitationIn,Events,Conditions,WindDirDegrees,DateUTC
12:53 AM,64.0,55.0,73,29.91,10.0,Calm,Calm,-,N/A,,Clear,0,2013-09-30 05:53:00
1:53 AM,61.0,54.0,78,29.91,10.0,Calm,Calm,-,N/A,,Clear,0,2013-09-30 06:53:00
2:53 AM,62.1,55.0,78,29.89,10.0,Calm,Calm,-,N/A,,Clear,0,2013-09-30 07:53:00
3:53 AM,60.1,55.9,86,29.88,10.0,Calm,Calm,-,N/A,,Clear,0,2013-09-30 08:53:00
4:53 AM,59.0,55.0,87,29.88,9.0,Calm,Calm,-,N/A,,Clear,0,2013-09-30 09:53:00
5:53 AM,57.9,55.9,93,29.87,10.0,Calm,Calm,-,N/A,,Clear,0,2013-09-30 10:53:00
6:53 AM,57.0,55.0,93,29.88,10.0,Calm,Calm,-,N/A,,Clear,0,2013-09-30 11:53:00
7:53 AM,57.9,54.0,87,29.89,10.0,Calm,Calm,-,N/A,,Clear,0,2013-09-30 12:53:00
8:53 AM,62.1,57.9,86,29.89,10.0,Calm,Calm,-,N/A,,Clear,0,2013-09-30 13:53:00
9:53 AM,69.1,55.0,61,29.89,10.0,Calm,Calm,-,N/A,,Clear,0,2013-09-30 14:53:00
10:53 AM,75.9,55.9,50,29.88,9.0,Variable,3.5,-,N/A,,Clear,0,2013-09-30 15:53:00
11:53 AM,79.0,53.1,40,29.88,10.0,South,4.6,-,N/A,,Clear,180,2013-09-30 16:53:00
12:53 PM,82.9,53.1,36,29.87,10.0,SSW,5.8,-,N/A,,Clear,200,2013-09-30 17:53:00
1:53 PM,82.9,54.0,37,29.83,10.0,ESE,5.8,-,N/A,,Clear,110,2013-09-30 18:53:00
2:53 PM,84.9,54.0,34,29.81,10.0,South,6.9,-,N/A,,Clear,170,2013-09-30 19:53:00
3:53 PM,84.9,51.1,31,29.80,10.0,ESE,8.1,-,N/A,,Clear,120,2013-09-30 20:53:00
4:53 PM,84.0,48.0,28,29.80,10.0,SSE,10.4,-,N/A,,Clear,160,2013-09-30 21:53:00
5:53 PM,82.9,52.0,34,29.80,10.0,SSE,11.5,-,N/A,,Clear,150,2013-09-30 22:53:00
6:53 PM,80.1,54.0,40,29.81,10.0,South,8.1,-,N/A,,Clear,170,2013-09-30 23:53:00
7:53 PM,75.9,55.9,50,29.82,10.0,SE,6.9,-,N/A,,Clear,140,2013-10-01 00:53:00
8:53 PM,75.0,57.0,53,29.83,10.0,SSE,3.5,-,N/A,,Clear,150,2013-10-01 01:53:00
9:53 PM,72.0,57.9,61,29.83,10.0,South,4.6,-,N/A,,Clear,170,2013-10-01 02:53:00
10:53 PM,70.0,59.0,68,29.83,10.0,SE,9.2,-,N/A,,Clear,140,2013-10-01 03:53:00
11:53 PM,70.0,61.0,73,29.82,10.0,SSE,9.2,-,N/A,,Clear,150,2013-10-01 04:53:00